sat.trackr.live / text

‹ back to catalog

IRIDIUM 110

NORAD 43481 · 2018-047F

PAYLOAD ACTIVE UNKNOWN

§ Identity

Operator
Country
US
Launch date
2018-05-22
Launch site
AFWTR
Launch vehicle
Mass (kg)
RCS (m²)

Purposes: comms

External: N2YO · Heavens-Above · Gunter

§ Orbital elements

Epoch: 2026-09-20T03:20:30.272928Z

Period
100.40 min
Inclination
86.3951°
Eccentricity
0.0002337
Mean motion
14.34217968 rev/d
Perigee alt
776.0 km
Apogee alt
779.3 km
Semi-major
7,155.8 km
B*
1.7083e-5
RAAN
48.6976°
Arg perigee
95.3133°
Mean anomaly
264.8329°
Rev number
43,608

§ Raw data

IRIDIUM 1101 43481U 18047F   26263.13923927  .00000068  00000+0  17083-4 0  99912 43481  86.3951  48.6976 0002337  95.3133 264.8329 14.34217968436083

JSON: /api/v1/satellites/43481 · /tle

For live sub-satellite position, see the globe view (requires WebGL).

§ Visibility from observer

Set your observer location to see the next 7 days of passes ≥ 10°. The values pass through the URL so the page stays shareable.

No JS? Fill the form by hand. The geolocation button needs JavaScript.